Regional Weather Roundup
Issued by NWS

Home | Current Version | Previous Version | Text Only | Print | Product List | Glossary Off
Versions: 1 2 3 4 5 6 7 8 9 10 11 12 13 14 15 16 17 18 19 20 21 22 23 24 25 26 27 28 29 30 31 32 33 34 35 36 37 38 39 40 41 42 43 44 45 46 47 48 49 50

946
ASUS43 KMPX 222001
RWRMN
WEATHER ROUNDUP FOR MINNESOTA
NATIONAL WEATHER SERVICE TWIN CITIES/CHANHASSEN MN
300 PM CDT SUN OCT 22 2017


NOTE: "FAIR" INDICATES FEW OR NO CLOUDS BELOW 12,000 FEET WITH NO
SIGNIFICANT WEATHER AND/OR OBSTRUCTIONS TO VISIBILITY. N/A MEANS
CURRENT SKY AND/OR WEATHER CONDITIONS ARE NOT AVAILABLE.

MNZ060>063-068>070-222100-
   Twin Cities Metro

CITY           SKY/WX    TMP DP  RH WIND       PRES   REMARKS
TWIN CITIES    MOSUNNY   63  32  31 W15       29.95F
ST PAUL        SUNNY     62  33  33 W12       29.96F
CRYSTAL        SUNNY     63  29  27 W12       29.93F
BLAINE         SUNNY     64  30  27 W10G23    29.94F
LAKEVILLE      SUNNY     61  32  33 W7G17     29.96F
EDEN PRAIRIE   SUNNY     63  32  31 W13       29.94F
SOUTH ST PAUL  SUNNY     63  33  32 W10G16    29.95F
LAKE ELMO      FAIR      61  36  39 W13       29.96F
$$
MNZ001>005-007-008-013>017-022>024-027-028-222100-
   Northwest Minnesota

CITY           SKY/WX    TMP DP  RH WIND       PRES   REMARKS
BEMIDJI        SUNNY     59  29  31 SW15      29.80F
HALLOCK        SUNNY     63  25  23 SW23G29   29.67F
ROSEAU         SUNNY     61  34  36 SW18G25   29.69F
WARROAD        SUNNY     59  36  41 SW18G26   29.70F
CROOKSTON      SUNNY     64  27  24 SW26G33   29.73F
FOSSTON        SUNNY     61  27  27 S25G33    29.78F
DETROIT LAKES  SUNNY     61  30  31 SW16G25   29.83F
MOORHEAD       SUNNY     63  27  25 SW17G23   29.81F
PARK RAPIDS    SUNNY     60  30  32 SW17G30   29.83F
MAHNOMEN       FAIR      61  30  31 SW22G31   29.79F
$$
MNZ006-009>011-018-025>026-222100-
   North Central Minnesota

CITY           SKY/WX    TMP DP  RH WIND       PRES   REMARKS
BAUDETTE       SUNNY     59  30  33 SW18G29   29.73F
FLAG ISLAND    SUNNY     55  30  38 SW22G28   29.67F
INTL FALLS     SUNNY     58  28  32 W17G26    29.75F
WASKISH        SUNNY     57  36  44 SW15        N/A
BIG FORK       SUNNY     59  28  31 W7G20     29.80F
LONGVILLE      SUNNY     61  28  29 SW13G21   29.84F
GRAND RAPIDS   SUNNY     58  29  33 W15       29.85F
CRANE LAKE     SUNNY     55  27  33 SW9G21    29.80S
ORR            SUNNY     57  25  28 SW10G20   29.77S
COOK           SUNNY     57  27  30 W18G25    29.81S
WALKER         FAIR      59  26  28 W16G28    29.82F
$$
MNZ012-019>021-037-222100-
   Northeast Minnesota

CITY           SKY/WX    TMP DP  RH WIND       PRES   REMARKS
DULUTH         MOSUNNY   58  31  35 W20G28    29.86S
ELY            SUNNY     57  27  30 W15       29.80S
HIBBING        SUNNY     56  29  35 W12G23    29.84S
EVELETH        SUNNY     58  10  15 W15G23    29.84S
DULUTH HARBOR  SUNNY     61  34  36 W16       29.86F
TWO HARBORS    SUNNY     63  37  39 SW15G23   29.83S
SILVER BAY     SUNNY     61  34  36 W6        29.82
G MARAIS ARPRT PTSUNNY   52  36  54 S7        29.81S
$$
MNZ029>031-032-039>041-046>048-054>057-064-222100-
   West Central Minnesota

CITY           SKY/WX    TMP DP  RH WIND       PRES   REMARKS
FERGUS FALLS   SUNNY     63  30  29 W21       29.84F
WHEATON        SUNNY     64  19  17 SW18      29.86F
ALEXANDRIA     SUNNY     62  29  28 SW16G24   29.89F
ELBOW LAKE     FAIR      62  32  32 W16G22    29.87F
WADENA         SUNNY     61  32  33 SW14G23   29.86F
GLENWOOD       SUNNY     63  30  29 SW14G24   29.90F
APPLETON       SUNNY     66  27  22 SW18G24   29.88F
BENSON         SUNNY     64  28  25 W18       29.91F
ORTONVILLE     SUNNY     66  27  22 NW12G21   29.87F
MADISON        SUNNY     68  27  21 SW15G21   29.89F
WILLMAR        FAIR      64  32  29 SW13      29.93F
$$
MNZ033>034-036-042>043-049>051-058-059-222100-
   Central Minnesota

CITY           SKY/WX    TMP DP  RH WIND       PRES   REMARKS
ST CLOUD       SUNNY     61  34  36 SW13      29.92F
SAUK CENTRE    FAIR      61  33  35 SW13      29.90F
PAYNESVILLE    SUNNY     63  31  31 SW13      29.92F
AITKIN         SUNNY     59  28  31 SW13      29.86F
PINE RIVER     SUNNY     57  30  35 W8G18     29.89F
BRAINERD       SUNNY     61  28  28 SW17G25   29.88F
STAPLES        SUNNY     61  28  29 SW15      29.87F
LONG PRAIRIE   FAIR      59  32  36 S8G17     29.90F
LITTLE FALLS   SUNNY     59  19  21 SW8G18    29.90F
LITCHFIELD     SUNNY     64  32  29 W6        29.94F
BUFFALO        SUNNY     62  33  33 W8        29.95F
MAPLE LAKE     SUNNY     63  36  37 SW7       29.94F
HUTCHINSON     SUNNY     64  33  30 W9G17     29.95F
$$
MNZ037-044-045-052-053-222100-
   East Central Minnesota

CITY           SKY/WX    TMP DP  RH WIND       PRES   REMARKS
PRINCETON      SUNNY     64  32  29 SW12G20   29.92F
MORA           SUNNY     59  30  33 W10G20    29.92F
CAMBRIDGE      SUNNY     64  39  39 W7        29.92F
RUSH CITY      SUNNY     62  32  32 W9G16     29.92F
MOOSE LAKE     SUNNY     61  34  36 SW15      29.87F
HINCKLEY       FAIR      61  32  33 W16       29.91F
CLOQUET        SUNNY     59  27  29 SW13G21   29.87S
MCGREGOR       SUNNY     59  32  36 SW10G18   29.87F
$$
MNZ071>073-080-081-089-090-097-098-222100-
   Southwest Minnesota

CITY           SKY/WX    TMP DP  RH WIND       PRES   REMARKS
MONTEVIDEO     SUNNY     68  30  24 W12G17    29.91F
GRANITE FALLS  SUNNY     65  33  30 SW15G22   29.94F
CANBY          SUNNY     66  27  22 SW15      29.91F
MARSHALL       SUNNY     65  28  24 SW13G24   29.93F
REDWOOD FALLS  SUNNY     64  28  25 SW15G21   29.94F
OLIVIA         SUNNY     63  32  31 SW14G20   29.93F
PIPESTONE      SUNNY     63  27  25 SW15G22   29.94F
WORTHINGTON    SUNNY     64  31  28 SW12G17   29.98F
JACKSON        SUNNY     63  28  27 SW16      30.00S
TRACY          SUNNY     65  32  29 SW15      29.95F
SLAYTON        SUNNY     63  29  27 SW15      29.96F
$$
MNZ065>067-074>077-082>085-091>093-222100-
   South Central Minnesota

CITY           SKY/WX    TMP DP  RH WIND       PRES   REMARKS
NEW ULM        SUNNY     63  28  27 W12G18    29.96F
ST JAMES       SUNNY     64  28  25 SW12G17   29.98F
FAIRMONT       SUNNY     63  31  30 W12       30.00F
GLENCOE        SUNNY     64  31  29 W8        29.95F
FARIBAULT      SUNNY     63  36  36 SW10      29.98F
OWATONNA       SUNNY     63  37  39 SW15      29.98F
WASECA         SUNNY     63  32  31 W7        30.00S
$$
MNZ078>079-086>088-094>096-222100-
   Southeast Minnesota

CITY           SKY/WX    TMP DP  RH WIND       PRES   REMARKS
ROCHESTER      CLOUDY    60  37  42 NW12G21   30.01R
RED WING       CLOUDY    63  28  27 W12       29.96S
STANTON        SUNNY     63  36  36 W13       29.96F
DODGE CENTER   CLOUDY    61  32  33 W12       29.99S
WINONA         PTSUNNY   55  41  58 CALM      30.00R
AUSTIN           N/A     61  34  36 W7        30.00S
PRESTON        CLOUDY    56  35  45 W6        30.02R
$$
ABBREVIATIONS USED IN REMARKS
   TC - TEMPERATURES IN CELSIUS
  WCI - WIND CHILL INDEX
   HX - HEAT INDEX
  VSB - VISIBILITY
$$




USA.gov is the U.S. government's official web portal to all federal, state and local government web resources and services.